[[{"header":{"parameterUnit":"m.s-1","parameterCategory":1,"la1":30.2991,"la2":30.254,"lo1":-89.0895,"lo2":-89.0444,"dy":0.0017,"dx":0.0017,"nx":28,"ny":28,"refTime":"2024-04-10T21:00:00:Z","depth":0,"parameterNumber":2,"parameterNumberName":"U-component_of_WINDS"},"data":[0,0,0,0,0,0,0,0,0,0,0,0,0,0,0,0,0,0,0,0,0,0,0,0,0,0,0,0,0,0,0,0,0,0,0,0,0,0,0,0,0,0,0,0,0,0,0,0,0,0,0,0,0,0,0,0,0,0,2.6977,2.6978,0,2.7086,2.7087,2.7088,2.7118,2.7117,2.7116,2.7116,2.7231,2.7235,2.7238,0,0,0,0,0,0,0,0,0,0,0,0,0,2.68,2.6803,2.6977,2.6978,2.6979,2.7085,2.7087,2.7088,2.7118,2.7117,2.7116,2.7115,2.723,2.7234,2.7239,0,0,0,0,0,0,0,0,0,0,0,0,0,2.6889,2.6804,2.6976,2.7007,2.701,2.7085,2.7087,2.7089,2.7118,2.7117,2.7116,2.7115,2.7228,2.7234,2.7239,2.7293,0,0,2.7256,2.7258,0,0,0,0,0,0,0,0,2.6884,2.6896,2.7001,2.7005,2.7009,2.7087,2.7067,2.7157,2.7118,2.7077,2.7116,2.7115,2.7184,2.7193,2.7216,2.7298,2.7303,2.7256,2.726,2.7262,2.7264,0,0,0,0,0,0,0,2.6878,2.6891,2.702,2.7002,2.7007,2.7017,2.7028,2.7084,2.7135,2.7081,2.7083,2.7095,2.7186,2.721,2.7219,2.7305,2.7256,2.7261,2.7265,2.7267,2.744,2.7441,0,0,0,0,0,0,2.6866,2.6886,2.7016,2.7023,2.6943,2.7021,2.7034,2.7063,2.7134,2.7144,2.7096,2.7096,2.7202,2.7212,2.7223,2.7293,2.7262,2.7267,2.727,2.7439,2.744,2.7442,0,0,0,0,0,0,2.6862,2.6877,2.7012,2.6955,2.6973,2.7025,2.7057,2.7066,2.709,2.7146,2.7156,2.7111,2.7201,2.7215,2.7276,2.7297,2.727,2.7275,2.7437,2.7439,2.7441,2.7431,0,0,0,0,0,0,2.6857,2.6876,2.6895,2.6955,2.6976,2.7061,2.7059,2.7068,2.7099,2.71,2.7163,2.7172,2.7202,2.7267,2.7281,2.7304,2.7279,2.7436,2.7438,2.7441,2.7429,2.7432,2.7434,0,0,0,0,0,2.685,2.6888,2.6896,2.6911,2.7001,2.7062,2.7074,2.7106,2.71,2.7122,2.7158,2.717,2.7292,2.7273,2.7289,2.7314,2.7435,2.7438,2.744,2.7428,2.7432,2.7434,0,0,0,0,0,0,2.6829,2.6896,2.6906,2.6963,2.7007,2.7067,2.7094,2.7108,2.7155,2.7154,2.7193,2.7207,2.7266,2.7296,2.7273,2.7371,2.7364,2.737,2.7349,2.7353,2.7355,2.7347,2.7284,0,0,0,0,0,2.6831,2.6873,2.693,2.6976,2.6997,2.7042,2.707,2.7091,2.7138,2.7156,2.7197,2.7244,2.7293,2.7325,2.7373,2.7434,2.745,2.7459,2.7462,2.7464,2.7469,2.7507,2.7513,2.7452,2.7451,2.7451,0,0,2.6835,2.6877,2.6902,2.6973,2.7009,2.7054,2.7057,2.7104,2.7139,2.7164,2.7224,2.7256,2.731,2.7372,2.7402,2.7399,2.7489,2.7467,2.7468,2.7473,2.751,2.7516,2.7521,2.7454,2.7453,2.7453,0,0,2.6867,2.6901,2.6945,2.6981,2.7036,2.7066,2.7076,2.7135,2.7157,2.7217,2.7238,2.7281,2.7364,2.7403,2.7434,2.7483,2.7497,2.7498,2.7511,2.7548,2.7553,2.7557,2.7577,2.7584,2.7503,2.7503,2.7503,0,2.6866,2.6933,2.6965,2.7012,2.7044,2.7069,2.7114,2.7148,2.7216,2.7239,2.7235,2.7342,2.738,2.7453,2.7465,2.7489,2.7504,2.7491,2.7549,2.7554,2.7559,2.7578,2.7585,2.7503,2.7503,2.7503,2.7503,0,2.693,2.6977,2.7005,2.707,2.7105,2.7151,2.7193,2.7225,2.7244,2.7275,2.7338,2.7385,2.7445,2.7464,2.7482,2.754,2.7538,2.7541,2.7534,2.7564,2.7583,2.759,2.7503,2.7503,2.7503,2.7503,0,0,2.695,2.7033,2.7044,2.7075,2.7138,2.7176,2.7224,2.7282,2.731,2.7356,2.74,2.7471,2.7475,2.751,2.7534,2.7566,2.7605,2.7566,2.7568,2.7573,2.7676,2.7673,2.7681,2.7615,2.7616,2.7618,2.7672,0,2.6991,2.7076,2.7108,2.718,2.7225,2.725,2.7293,2.7338,2.7369,2.7414,2.7449,2.75,2.75,2.7522,2.7555,2.7593,2.7627,2.759,2.7658,2.766,2.7644,2.7691,2.7688,2.7737,2.7679,2.768,2.7681,0,2.7049,2.7097,2.7172,2.7233,2.7253,2.729,2.7347,2.7389,2.7441,2.7462,2.7502,2.7525,2.7579,2.7569,2.7646,2.7621,2.7651,2.7674,2.7677,2.7686,2.7673,2.7702,2.7753,2.7761,2.7693,2.7692,2.7691,0,2.7059,2.7142,2.7198,2.7224,2.7295,2.7321,2.7352,2.7404,2.7437,2.7488,2.7511,2.7567,2.7598,2.7643,2.7681,2.7669,2.7756,2.7748,2.7776,2.7776,2.7794,2.7792,2.7851,2.7811,2.7811,2.7811,2.781,0,2.7102,2.7148,2.7204,2.7239,2.7292,2.7329,2.7382,2.7415,2.7461,2.7505,2.753,2.7571,2.7618,2.7666,2.7697,2.7758,2.7771,2.7791,2.7799,2.779,2.7787,2.7811,2.7809,2.7813,2.7812,2.7812,2.7811,0,2.7121,2.716,2.7224,2.7287,2.7304,2.7341,2.7395,2.7432,2.7465,2.752,2.7535,2.7587,2.7645,2.7688,2.7762,2.7783,2.7849,2.7856,2.7831,2.7835,2.7862,2.786,2.7939,2.7953,2.7901,2.7902,2.7902,0,2.7147,2.7183,2.7249,2.728,2.7311,2.736,2.7395,2.7434,2.7469,2.7534,2.7563,2.7622,2.7672,2.7764,2.781,2.7869,2.7878,2.7902,2.7887,2.7878,2.7881,2.7879,2.7884,2.7905,2.7905,2.7905,2.7905,0,2.7188,2.7207,2.7254,2.731,2.7351,2.7397,2.7443,2.7467,2.7516,2.7555,2.7614,2.7652,2.7729,2.7789,2.7853,2.7887,2.7906,2.791,2.792,2.7911,2.7896,2.7907,2.7839,2.7908,2.7908,2.7908,2.7907,2.7907,2.7213,2.7247,2.73,2.7354,2.7393,2.7437,2.7474,2.7512,2.7562,2.7627,2.7648,2.771,2.7765,2.7852,2.7888,2.7938,2.7938,2.7952,2.7956,2.7959,2.796,2.7887,2.795,2.795,2.795,2.795,2.795,0,2.7258,2.7294,2.7342,2.7407,2.745,2.7462,2.7515,2.7551,2.7605,2.7654,2.7702,2.7772,2.7831,2.7882,2.7944,2.7975,2.7986,2.7991,2.7989,2.7998,2.7956,2.7941,2.7981,2.7981,2.7981,2.7981,2.7981,2.7981,2.7286,2.7346,2.737,2.7451,2.7487,2.7547,2.7576,2.7618,2.7657,2.7734,2.7782,2.7815,2.7867,2.7933,2.7988,2.8002,2.8025,2.8028,2.8044,2.8004,2.8,2.7997,2.7984,2.8032,2.8032,2.8082,2.8083,2.8083]},{"header":{"parameterUnit":"m.s-1","parameterCategory":1,"la1":30.2991,"la2":30.254,"lo1":-89.0895,"lo2":-89.0444,"dy":0.0017,"dx":0.0017,"nx":28,"ny":28,"refTime":"2024-04-10T21:00:00:Z","depth":0,"parameterNumber":3,"parameterNumberName":"V-component_of_WINDS"},"data":[0,0,0,0,0,0,0,0,0,0,0,0,0,0,0,0,0,0,0,0,0,0,0,0,0,0,0,0,0,0,0,0,0,0,0,0,0,0,0,0,0,0,0,0,0,0,0,0,0,0,0,0,0,0,0,0,0,0,-2.6614,-2.6613,0,-2.6546,-2.6545,-2.6544,-2.6575,-2.6577,-2.6579,-2.658,-2.6506,-2.6503,-2.6499,0,0,0,0,0,0,0,0,0,0,0,0,0,-2.6768,-2.6765,-2.6614,-2.6613,-2.6613,-2.6546,-2.6545,-2.6544,-2.6575,-2.6577,-2.6579,-2.6581,-2.6507,-2.6503,-2.6499,0,0,0,0,0,0,0,0,0,0,0,0,0,-2.6701,-2.6764,-2.6614,-2.662,-2.662,-2.6546,-2.6545,-2.6544,-2.6574,-2.6577,-2.6579,-2.6582,-2.6509,-2.6504,-2.6498,-2.6414,0,0,-2.6482,-2.648,0,0,0,0,0,0,0,0,-2.6704,-2.6695,-2.662,-2.6619,-2.6619,-2.6572,-2.6572,-2.65,-2.6574,-2.6591,-2.658,-2.6583,-2.6526,-2.6519,-2.6501,-2.6411,-2.6408,-2.6482,-2.6478,-2.6476,-2.6475,0,0,0,0,0,0,0,-2.6709,-2.6698,-2.6587,-2.6619,-2.6618,-2.6625,-2.6618,-2.6559,-2.6545,-2.659,-2.6592,-2.6584,-2.6526,-2.6506,-2.6499,-2.6407,-2.6482,-2.6477,-2.6474,-2.6472,-2.6245,-2.6242,0,0,0,0,0,0,-2.6714,-2.6702,-2.6589,-2.6585,-2.6669,-2.662,-2.6612,-2.6584,-2.6546,-2.6542,-2.6582,-2.6586,-2.6513,-2.6505,-2.6497,-2.6395,-2.6476,-2.6471,-2.6468,-2.6247,-2.6244,-2.6241,0,0,0,0,0,0,-2.6717,-2.6704,-2.6592,-2.6644,-2.663,-2.6615,-2.6583,-2.6582,-2.6561,-2.6539,-2.6537,-2.6564,-2.6515,-2.6504,-2.6435,-2.6393,-2.6469,-2.6464,-2.6251,-2.6246,-2.6242,-2.6192,0,0,0,0,0,0,-2.6722,-2.6705,-2.6673,-2.6643,-2.6627,-2.6532,-2.658,-2.6578,-2.6553,-2.6557,-2.6522,-2.6518,-2.6516,-2.6443,-2.6429,-2.6387,-2.646,-2.6254,-2.6249,-2.6244,-2.6197,-2.6187,-2.6177,0,0,0,0,0,-2.6727,-2.6661,-2.6671,-2.6658,-2.6588,-2.653,-2.652,-2.652,-2.6549,-2.6517,-2.6503,-2.652,-2.64,-2.6435,-2.6421,-2.6376,-2.6257,-2.625,-2.6244,-2.6202,-2.6189,-2.6178,0,0,0,0,0,0,-2.6684,-2.6657,-2.6668,-2.6591,-2.6562,-2.6535,-2.6494,-2.6507,-2.6469,-2.6474,-2.6475,-2.6466,-2.6395,-2.6379,-2.6418,-2.6293,-2.6333,-2.6323,-2.6306,-2.6293,-2.6283,-2.6288,-2.6455,0,0,0,0,0,-2.6667,-2.6623,-2.6601,-2.6534,-2.652,-2.6509,-2.6484,-2.6487,-2.6457,-2.6445,-2.6426,-2.6395,-2.6351,-2.6321,-2.6279,-2.6196,-2.6188,-2.6158,-2.6148,-2.614,-2.6131,-2.6086,-2.6072,-2.622,-2.622,-2.622,0,0,-2.6628,-2.6608,-2.6579,-2.6525,-2.6504,-2.6457,-2.6499,-2.6448,-2.6413,-2.6436,-2.637,-2.6355,-2.6321,-2.6244,-2.621,-2.6229,-2.6089,-2.6132,-2.6126,-2.6121,-2.6078,-2.6064,-2.6051,-2.6216,-2.6216,-2.6217,0,0,-2.6534,-2.6514,-2.6457,-2.6435,-2.6403,-2.6397,-2.6383,-2.6354,-2.6345,-2.6279,-2.6296,-2.6254,-2.6178,-2.6153,-2.613,-2.6029,-2.6042,-2.6015,-2.5962,-2.5918,-2.5906,-2.5896,-2.5858,-2.5845,-2.6007,-2.6007,-2.6006,0,-2.6489,-2.6421,-2.6425,-2.6373,-2.6348,-2.637,-2.6311,-2.6289,-2.6244,-2.6226,-2.6249,-2.6154,-2.6133,-2.6051,-2.6026,-2.6007,-2.5991,-2.6018,-2.5908,-2.5897,-2.5888,-2.5852,-2.5838,-2.6003,-2.6004,-2.6004,-2.6004,0,-2.6368,-2.632,-2.6278,-2.6235,-2.6206,-2.6151,-2.6146,-2.6116,-2.6121,-2.6113,-2.6045,-2.6021,-2.5974,-2.5955,-2.596,-2.5873,-2.5886,-2.5909,-2.5948,-2.587,-2.5837,-2.5823,-2.5999,-2.6,-2.6001,-2.6002,0,0,-2.6242,-2.6205,-2.6189,-2.617,-2.6137,-2.6099,-2.6045,-2.6001,-2.5975,-2.5944,-2.5898,-2.5834,-2.5854,-2.5829,-2.5831,-2.5792,-2.5712,-2.5819,-2.5818,-2.5799,-2.5615,-2.5597,-2.5581,-2.5722,-2.572,-2.5718,-2.5617,0,-2.6145,-2.6051,-2.6054,-2.5966,-2.5922,-2.5942,-2.5895,-2.5869,-2.586,-2.5821,-2.581,-2.5765,-2.5796,-2.5781,-2.5743,-2.573,-2.5675,-2.5738,-2.5678,-2.5676,-2.5684,-2.5564,-2.5545,-2.5451,-2.5604,-2.5602,-2.5601,0,-2.6018,-2.5984,-2.5892,-2.5866,-2.5847,-2.5805,-2.5765,-2.5728,-2.5699,-2.5695,-2.5667,-2.5676,-2.562,-2.5664,-2.5586,-2.5629,-2.5605,-2.5595,-2.5591,-2.5584,-2.5632,-2.5552,-2.5421,-2.5407,-2.558,-2.5582,-2.5583,0,-2.5934,-2.5865,-2.5802,-2.5785,-2.5753,-2.5723,-2.5708,-2.5682,-2.5656,-2.5621,-2.5604,-2.5562,-2.5539,-2.5507,-2.5504,-2.5536,-2.5426,-2.5469,-2.542,-2.542,-2.5394,-2.5395,-2.5256,-2.5381,-2.5382,-2.5382,-2.5382,0,-2.5823,-2.5766,-2.5764,-2.5724,-2.566,-2.5665,-2.5601,-2.5589,-2.5566,-2.5524,-2.5539,-2.5499,-2.5499,-2.5458,-2.5456,-2.5392,-2.5381,-2.5376,-2.5375,-2.5373,-2.5374,-2.5356,-2.5362,-2.5378,-2.5379,-2.538,-2.538,0,-2.5718,-2.5714,-2.5646,-2.5622,-2.5615,-2.5569,-2.5548,-2.551,-2.5504,-2.5451,-2.5438,-2.5427,-2.538,-2.5375,-2.5319,-2.5318,-2.524,-2.5248,-2.525,-2.525,-2.5201,-2.5205,-2.5044,-2.5023,-2.5164,-2.5162,-2.5161,0,-2.5646,-2.5603,-2.5576,-2.5549,-2.5533,-2.549,-2.5464,-2.5467,-2.5439,-2.5404,-2.537,-2.5324,-2.5288,-2.5211,-2.5198,-2.5155,-2.5161,-2.5107,-2.5154,-2.5154,-2.5158,-2.516,-2.5155,-2.5097,-2.5096,-2.5095,-2.5094,0,-2.552,-2.5521,-2.5483,-2.5445,-2.5413,-2.5383,-2.5354,-2.5332,-2.5331,-2.5299,-2.5251,-2.5223,-2.5168,-2.5122,-2.5081,-2.5065,-2.5078,-2.508,-2.5066,-2.5062,-2.5064,-2.5061,-2.5223,-2.5082,-2.5084,-2.5084,-2.5085,-2.5085,-2.5428,-2.5391,-2.5366,-2.5323,-2.5303,-2.5276,-2.5239,-2.5229,-2.519,-2.5146,-2.515,-2.5098,-2.507,-2.5017,-2.4998,-2.4956,-2.4974,-2.4954,-2.4948,-2.4943,-2.4937,-2.5073,-2.4949,-2.4949,-2.4949,-2.495,-2.495,0,-2.5301,-2.5287,-2.5248,-2.5209,-2.5175,-2.5194,-2.5163,-2.5134,-2.5088,-2.5062,-2.5027,-2.4972,-2.4928,-2.4912,-2.4869,-2.4839,-2.4844,-2.4828,-2.4829,-2.4825,-2.4925,-2.494,-2.4824,-2.4824,-2.4824,-2.4824,-2.4824,-2.4824,-2.5231,-2.5168,-2.5167,-2.5094,-2.508,-2.5029,-2.501,-2.4986,-2.4965,-2.4904,-2.4869,-2.4859,-2.4837,-2.4793,-2.4754,-2.475,-2.4733,-2.4713,-2.4712,-2.4805,-2.4818,-2.483,-2.4844,-2.471,-2.471,-2.4615,-2.4614,-2.4613]}]]